Date String (YYYY-MM-DD hh:mm:ss) UTC,Instrument flags,absolute air pressure of the measurement (hPa),sample flow rate (lpm),inlet stack bypass flow (lpm),air temperature of the measurement (°C),ambient temperature measured by the external sensor (°C),aerosol sample conditioner tube jacket temperature (°C),OPC LED temperature (°C),internal box temperature (°C),relative humidity of the measurement (%),span deviation,mass concentration of particles derived from Lorenz-Mie calculation of OPC scattering (μg/m³),mass concentration of particles derived from Lorenz-Mie calculation of OPC scattering (μg/m³),mass concentration of particles derived from Lorenz-Mie calculation of OPC scattering (μg/m³)
DateTimeUTC,F1_M11,P_M11,Q1_M11,Q2_M11,T1_M11,T2_M11,T3_M11,T4_M11,T5_M11,U1_M11,ZSPAN_M11,X0_M11,X2_M11,X1_M11
2024-03-05 11:00:00,SystemResetWarning,0826.8,5.00,000.00,018.3,017.7,000.0,026.9,020.0,13.9,0000.0,0005.77,0001.22,0000.63
2024-03-05 11:01:00,SystemResetWarning,0826.8,4.99,000.00,018.3,017.7,000.0,026.9,020.0,13.9,0000.0,0007.19,0001.18,0000.63
2024-03-05 11:02:00,SystemResetWarning,0826.8,4.99,000.00,018.3,017.6,000.0,026.9,020.0,13.9,0000.0,0007.30,0001.17,0000.62
2024-03-05 11:03:00,SystemResetWarning,0826.8,5.01,000.00,018.3,017.6,000.0,026.9,020.0,14.0,0000.0,0006.66,0001.13,0000.61
2024-03-05 11:04:00,SystemResetWarning,0826.8,5.01,000.00,018.3,017.6,000.0,026.9,020.0,14.1,0000.0,0005.76,0001.11,0000.61
2024-03-05 11:05:00,SystemResetWarning,0826.9,4.98,000.00,018.3,017.6,000.0,026.9,020.0,14.1,0000.0,0005.47,0001.13,0000.61
2024-03-05 11:06:00,SystemResetWarning,0827.0,4.99,000.00,018.3,017.6,000.0,026.9,020.0,14.1,0000.0,0005.27,0001.13,0000.63
2024-03-05 11:07:00,SystemResetWarning,0827.1,5.00,000.00,018.3,017.6,000.0,026.9,020.0,14.0,0000.0,0005.35,0001.13,0000.64
2024-03-05 11:08:00,SystemResetWarning,0827.1,5.00,000.00,018.3,017.6,000.0,026.9,020.0,14.0,0000.0,0006.15,0001.13,0000.64
2024-03-05 11:09:00,SystemResetWarning,0827.1,5.00,000.00,018.3,017.5,000.0,026.8,020.0,14.0,0000.0,0006.08,0001.13,0000.64
2024-03-05 11:10:00,SystemResetWarning,0827.1,5.00,000.00,018.3,017.5,000.0,026.8,020.0,14.1,0000.0,0006.18,0001.18,0000.64
2024-03-05 11:11:00,SystemResetWarning,0827.0,5.00,000.00,018.3,017.5,000.0,026.8,020.0,14.1,0000.0,0006.03,0001.22,0000.64
2024-03-05 11:12:00,SystemResetWarning,0827.0,5.01,000.00,018.3,017.5,000.0,026.9,020.0,14.1,0000.0,0004.43,0001.21,0000.63
2024-03-05 11:13:00,SystemResetWarning,0827.1,5.00,000.00,018.3,017.5,000.0,026.8,020.0,14.1,0000.0,0003.62,0001.19,0000.63
2024-03-05 11:14:00,SystemResetWarning,0827.1,5.00,000.00,018.3,017.5,000.0,026.8,020.0,14.2,0000.0,0003.50,0001.16,0000.63
2024-03-05 11:15:00,SystemResetWarning,0827.2,5.00,000.00,018.3,017.5,000.0,026.8,020.0,14.2,0000.0,0003.44,0001.14,0000.63
2024-03-05 11:16:00,SystemResetWarning,0827.3,4.99,000.00,018.2,017.5,000.0,026.8,020.0,14.3,0000.0,0003.70,0001.13,0000.63
2024-03-05 11:17:00,SystemResetWarning,0827.3,4.99,000.00,018.2,017.4,000.0,026.8,020.0,14.4,0000.0,0004.62,0001.09,0000.62
2024-03-05 11:18:00,SystemResetWarning,0827.2,5.00,000.00,018.2,017.4,000.0,026.8,020.0,14.4,0000.0,0004.72,0001.09,0000.60
2024-03-05 11:19:00,SystemResetWarning,0827.1,5.00,000.00,018.2,017.4,000.0,026.8,020.0,14.4,0000.0,0003.98,0001.04,0000.60
2024-03-05 11:20:00,SystemResetWarning,0827.1,5.01,000.00,018.2,017.4,000.0,026.8,020.0,14.4,0000.0,0003.78,0001.04,0000.60
2024-03-05 11:21:00,SystemResetWarning,0827.1,5.01,000.00,018.2,017.4,000.0,026.8,020.0,14.5,0000.0,0003.79,0000.99,0000.61
2024-03-05 11:22:00,SystemResetWarning,0827.1,5.00,000.00,018.3,017.7,000.0,026.9,020.2,14.5,0000.0,0003.60,0000.97,0000.61
2024-03-05 11:23:00,SystemResetWarning,0827.2,5.00,000.00,018.4,018.5,000.0,027.0,020.6,14.3,0000.0,0003.70,0000.98,0000.63
2024-03-05 11:24:00,SystemResetWarning,0827.2,4.99,000.00,018.6,018.7,000.0,027.0,020.7,14.2,0000.0,0004.69,0001.01,0000.63
2024-03-05 11:25:00,SystemResetWarning,0827.3,5.00,000.00,018.6,018.6,000.0,027.0,020.6,14.2,0000.0,0004.68,0001.01,0000.63
2024-03-05 11:26:00,SystemResetWarning,0827.3,5.00,000.00,018.6,018.4,000.0,027.0,020.5,14.1,0000.0,0004.62,0000.99,0000.63
2024-03-05 11:27:00,SystemResetWarning,0827.2,5.00,000.00,018.6,018.3,000.0,027.0,020.4,14.1,0000.0,0004.42,0001.02,0000.63
2024-03-05 11:28:00,SystemResetWarning,0827.3,5.00,000.00,018.6,018.3,000.0,026.9,020.4,14.1,0000.0,0003.48,0001.06,0000.64
2024-03-05 11:29:00,SystemResetWarning,0827.3,5.01,000.00,018.5,018.2,000.0,026.9,020.3,14.1,0000.0,0003.45,0001.05,0000.65
2024-03-05 11:30:00,SystemResetWarning,0827.2,5.01,000.00,018.5,018.1,000.0,026.9,020.3,14.2,0000.0,0003.82,0001.07,0000.65
2024-03-05 11:31:00,SystemResetWarning,0827.2,4.99,000.00,018.5,018.0,000.0,026.9,020.2,14.2,0000.0,0005.08,0001.13,0000.66
2024-03-05 11:32:00,SystemResetWarning,0827.2,4.98,000.00,018.5,017.9,000.0,026.9,020.2,14.2,0000.0,0005.46,0001.18,0000.66
2024-03-05 11:33:00,SystemResetWarning,0827.3,4.99,000.00,018.4,017.9,000.0,026.9,020.2,14.2,0000.0,0005.68,0001.17,0000.68
2024-03-05 11:34:00,SystemResetWarning,0827.4,5.01,000.00,018.4,017.8,000.0,026.9,020.1,14.2,0000.0,0005.66,0001.17,0000.68
2024-03-05 11:35:00,SystemResetWarning,0827.3,5.01,000.00,018.4,017.7,000.0,026.9,020.0,14.2,0000.0,0005.43,0001.19,0000.69
2024-03-05 11:36:00,SystemResetWarning,0827.3,5.01,000.00,018.3,017.7,000.0,026.9,020.0,14.3,0000.0,0005.34,0001.17,0000.70
2024-03-05 11:37:00,SystemResetWarning,0827.3,5.01,000.00,018.3,017.6,000.0,026.9,020.0,14.3,0000.0,0005.52,0001.20,0000.72
2024-03-05 11:38:00,SystemResetWarning,0827.2,4.99,000.00,018.3,017.6,000.0,026.9,020.0,14.3,0000.0,0006.66,0001.25,0000.73
2024-03-05 11:39:00,SystemResetWarning,0827.2,5.00,000.00,018.3,017.5,000.0,026.9,020.0,14.4,0000.0,0006.79,0001.26,0000.73
2024-03-05 11:40:00,SystemResetWarning,0827.3,5.00,000.00,018.2,017.5,000.0,026.9,020.0,14.3,0000.0,0006.89,0001.26,0000.74
2024-03-05 11:41:00,SystemResetWarning,0827.4,5.00,000.00,018.2,017.5,000.0,026.9,020.0,14.3,0000.0,0007.23,0001.25,0000.73
2024-03-05 11:42:00,SystemResetWarning,0827.6,5.00,000.00,018.2,017.5,000.0,026.9,020.0,14.3,0000.0,0006.33,0001.22,0000.73
2024-03-05 11:43:00,SystemResetWarning,0827.7,5.01,000.00,018.3,018.0,000.0,027.0,020.4,14.3,0000.0,0005.44,0001.20,0000.74
2024-03-05 11:44:00,SystemResetWarning,0827.8,4.99,000.00,018.6,018.8,000.0,027.1,020.8,14.1,0000.0,0005.10,0001.19,0000.73
2024-03-05 11:45:00,SystemResetWarning,0827.8,4.99,000.00,018.7,018.8,000.0,027.1,020.8,14.0,0000.0,0005.15,0001.21,0000.73
2024-03-05 11:46:00,SystemResetWarning,0827.7,5.00,000.00,018.7,018.7,000.0,027.0,020.7,14.0,0000.0,0004.53,0001.22,0000.74
2024-03-05 11:47:00,SystemResetWarning,0827.7,5.00,000.00,018.7,018.6,000.0,027.0,020.6,14.0,0000.0,0004.31,0001.24,0000.75
2024-03-05 11:48:00,SystemResetWarning,0827.5,5.00,000.00,018.7,018.5,000.0,027.0,020.6,14.0,0000.0,0004.31,0001.24,0000.75
2024-03-05 11:49:00,SystemResetWarning,0827.6,5.00,000.00,018.7,018.4,000.0,027.0,020.5,14.0,0000.0,0003.10,0001.19,0000.74
2024-03-05 11:50:00,SystemResetWarning,0827.4,5.00,000.00,018.6,018.3,000.0,027.0,020.4,13.9,0000.0,0002.94,0001.18,0000.75
2024-03-05 11:51:00,SystemResetWarning,0827.5,5.00,000.00,018.6,018.2,000.0,027.0,020.4,14.0,0000.0,0003.15,0001.23,0000.75
2024-03-05 11:52:00,SystemResetWarning,0827.7,5.01,000.00,018.6,018.1,000.0,027.0,020.3,14.0,0000.0,0002.64,0001.26,0000.76
2024-03-05 11:53:00,SystemResetWarning,0827.8,5.01,000.00,018.6,018.1,000.0,027.0,020.3,14.0,0000.0,0002.74,0001.29,0000.77
2024-03-05 11:54:00,SystemResetWarning,0828.0,5.00,000.00,018.5,018.0,000.0,027.0,020.3,14.0,0000.0,0002.87,0001.29,0000.77
2024-03-05 11:55:00,SystemResetWarning,0827.8,5.01,000.00,018.5,018.0,000.0,027.0,020.3,14.0,0000.0,0002.89,0001.29,0000.77
2024-03-05 11:56:00,SystemResetWarning,0827.8,4.99,000.00,018.5,017.9,000.0,027.0,020.2,14.1,0000.0,0003.24,0001.29,0000.76
2024-03-05 11:57:00,SystemResetWarning,0827.7,5.00,000.00,018.5,017.9,000.0,027.0,020.2,14.1,0000.0,0003.52,0001.28,0000.74
2024-03-05 11:58:00,SystemResetWarning,0827.6,5.00,000.00,018.5,017.9,000.0,027.0,020.2,14.0,0000.0,0003.68,0001.29,0000.74
2024-03-05 11:59:00,SystemResetWarning,0827.5,5.00,000.00,018.4,017.8,000.0,027.0,020.2,14.0,0000.0,0003.81,0001.33,0000.73
